Location: Windermere Park
(33.1210°S, 151.5307°E)
Time: 11:51:00
(UTC+00:00)

Daily predictions for brighter satellites

Satellite Brightness Start Highest point End
(mag) Time Altitude Azimuth Time Altitude Azimuth Time Altitude Azimuth
CZ-3 R/B 4.4 15:57:58 10° NW 16:48:47 57° NNE 17:00:46 10° E
H-2A R/B 4.5 17:59:45 10° SSE 18:00:49 17° SSE 18:00:49 17° SSE
Cosmos 2369 Rocket 4.0 18:01:48 11° S 18:06:36 29° ESE 18:11:25 10° ENE
COSMOS 2455 3.5 18:17:01 41° N 18:17:01 41° N 18:20:53 10° NNE
Nadezhda 1 Rocket 4.2 18:09:14 10° S 18:15:36 72° E 18:21:59 10° NNE
X-37B 3.6 18:19:59 17° E 18:19:59 17° E 18:20:56 10° ESE
Cosmos 1943 Rocket 2.7 18:16:46 32° S 18:19:15 57° ESE 18:24:46 10° NE
Cosmos 1420 Rocket 4.5 18:21:50 29° S 18:24:21 58° ESE 18:29:28 10° NNE
Meteor 1-11 4.3 18:26:29 59° SSW 18:26:29 59° SSW 18:31:07 10° S
Cosmos 1709 Rocket 4.3 18:19:25 10° N 18:25:27 64° E 18:31:37 10° SSE
Cosmos 1607 4.5 18:29:18 42° SSW 18:29:18 42° SSW 18:34:09 10° SSE
Cosmos 1048 Rocket 4.1 18:32:04 22° N 18:35:37 80° ENE 18:41:04 10° SSE
ASTEX 1 3.3 18:31:38 10° N 18:36:36 88° E 18:41:41 10° S
PSLV R/B 4.1 18:37:59 10° NNE 18:41:02 57° NE 18:41:02 57° NE
OAO 1 4.4 18:43:34 59° WSW 18:44:41 90° SSE 18:50:16 10° ENE
Cosmos 2221 4.4 18:40:51 10° SSE 18:44:51 32° E 18:48:47 10° NE
Cosmos 1603 3.7 18:46:01 52° W 18:46:30 54° WSW 18:52:02 10° S
Radarsat Rocket 4.5 18:47:53 10° NNE 18:53:52 59° ESE 18:59:38 10° S
ERBS 3.8 18:56:20 26° S 18:56:20 26° S 18:58:10 10° SSE
Envisat 4.1 18:51:36 10° NE 18:56:27 45° ESE 19:01:20 10° S
NOAA 6 4.1 18:52:56 10° NNE 18:58:07 81° ESE 19:03:23 10° S
Cosmos 332 Rocket 3.7 18:55:38 18° SSW 18:59:21 81° WNW 19:04:10 10° NNE
SMAP 4.2 19:01:18 10° NE 19:05:45 45° ESE 19:10:15 10° S
CZ-3A R/B 3.6 19:02:29 16° NW 19:05:54 37° NNE 19:18:42 10° E
Cosmos 1943 3.5 19:04:01 28° WNW 19:06:28 44° WSW 19:11:56 10° S
Alouette 2 Rocket 4.3 19:00:41 10° SSW 19:07:37 54° W 19:12:09 10° N
CZ-4C R/B 2.9 19:08:38 24° NW 19:08:38 24° NW 19:11:29 10° NNW
In-Cosmos 22 Rocket 4.2 19:02:09 10° N 19:07:46 88° E 19:13:19 10° S
MOS 1-B 4.3 19:03:59 10° N 19:09:43 66° WNW 19:15:31 10° SSW
ADEOS Rocket 3.7 19:05:00 10° SSE 19:11:29 66° ENE 19:18:37 10° N
Cosmos 2058 3.0 19:07:28 10° N 19:11:42 81° E 19:15:59 10° S
Cosmos 371 Rocket 3.7 19:10:17 30° WSW 19:11:49 39° W 19:16:20 10° N
SL-4 R/B 3.3 19:13:10 10° NNW 19:16:43 38° NE 19:20:35 10° ESE
STPSAT 2 (USA 217) 4.5 19:13:33 10° NNW 19:18:04 80° WSW 19:22:39 10° SSE
ISS -2.4 19:20:27 24° NW 19:20:27 24° NW 19:23:11 10° N
Cosmos 2181 Rocket 4.1 19:14:34 10° S 19:21:08 90° E 19:27:33 10° N
Cosmos 1842 Rocket 3.4 19:17:30 10° S 19:21:58 74° W 19:26:19 10° N
H-2A R/B 3.4 19:20:32 10° NNW 19:23:55 25° W 19:24:12 25° W
Cosmos 494 Rocket 4.2 19:23:22 10° NW 19:28:29 51° WSW 19:33:39 10° S
Okean O Rocket 1.6 19:29:30 10° N 19:33:56 65° W 19:38:24 10° SSW
Cosmos 1452 Rocket 3.9 19:33:12 10° SSW 19:38:11 41° WNW 19:43:06 10° N
H-2A R/B 4.1 19:37:27 10° SW 19:37:55 11° SW 19:37:55 11° SW
CZ-4B R/B 2.3 19:36:27 10° SSW 19:39:34 29° WSW 19:42:36 10° NW
Cosmos 1331 Rocket 4.5 19:34:22 10° S 19:39:37 66° ESE 19:44:51 10° NNE
Cosmos 1932 4.4 19:34:18 10° NNW 19:40:29 77° WSW 19:46:39 10° SSE
Cosmos 1656 Rocket 3.6 19:35:17 10° SSW 19:40:56 84° WNW 19:46:26 10° NNE
CZ-4B R/B 3.4 19:37:45 10° N 19:43:18 54° W 19:48:52 10° SSW
SKYMED 2 4.4 19:39:10 10° SSE 19:43:30 56° E 19:47:46 10° N
Cosmos 2184 Rocket 3.9 19:38:23 10° N 19:44:34 79° W 19:50:49 10° S
H-2A R/B 3.8 19:43:38 10° NNW 19:46:44 24° W 19:49:50 10° SW
Cosmos 1892 3.6 19:43:30 10° NW 19:46:44 27° W 19:50:02 10° SSW
Cosmos 2074 Rocket 4.0 19:40:31 10° NNW 19:46:48 73° W 19:53:10 10° S
NOAA 12 4.1 19:43:36 10° N 19:48:51 76° WNW 19:54:12 10° SSW
Cosmos 2369 Rocket 2.9 19:45:33 10° SW 19:50:31 32° WNW 19:55:26 10° NNW
AQUARIUS 4.3 19:48:33 10° N 19:52:59 58° W 19:57:28 10° SSW
Cosmos 1408 3.1 19:49:58 10° NNW 19:53:21 35° W 19:56:46 10° SSW
X-37B 1.9 19:52:17 13° W 19:54:35 26° SSW 19:57:24 10° SE
Cosmos 1340 2.6 19:53:24 10° N 19:57:11 88° WSW 20:01:01 10° S
FALCON 9 DEB 3.5 19:55:10 10° NW 19:58:36 70° NE 20:02:05 10° SE
Cosmos 1939 Rocket 4.4 19:55:10 10° NE 19:59:05 41° ESE 20:03:01 10° S
Cosmos 2151 3.0 19:56:41 10° N 20:01:00 78° W 20:05:23 10° S
Cosmos 1943 Rocket 3.7 19:59:18 10° WSW 20:02:24 15° W 20:05:30 10° NW
Helios 1A Rocket 3.1 20:01:49 10° NNE 20:05:58 83° E 20:10:12 10° S
Cosmos 1766 Rocket 4.0 20:01:41 10° N 20:05:58 67° E 20:10:20 10° SSE
Cosmos 1689 Rocket 3.2 20:05:39 10° SSW 20:08:10 24° WSW 20:10:36 10° NW
NOAA 11 4.4 20:03:02 10° NNE 20:08:33 82° ESE 20:14:05 10° S
CORIOLIS 4.4 20:03:43 10° N 20:08:53 48° W 20:14:06 10° SSW
ATLAS 5 CENTAUR R/B 4.3 20:06:19 10° S 20:09:33 16° SE 20:12:31 10° E
YAOGAN 1 4.5 20:06:21 10° NE 20:10:15 33° ESE 20:14:12 10° S
